| |
Missouri Department of Transportation

Social Media Facebook Twitter Flickr Instagram YouTube RSS

Current AWOS Information

 
AWOS Home - General Info for all Airports
Current AWOS for all Airports - Current METAR for all Airports
Glossary - Disclaimer - Other Links


WARSAW--WARSAW MUNICIPAL--KRAW
 
Recent AWOS History
 
05/01/16     04:12 PM CDT      21:12 GMT
Air Temperature 63°F (17°C ) 1st Cloud Layer Scattered at 4,600 feet
Dew Point 42°F (6°C) 2nd Cloud Layer Scattered at 6,000 feet
Barometric Pressure 30.01 in Hg. 3rd Cloud Layer  
Wind Speed 12 mph (11 knots) Density Altitude  
Peak Wind Gusts 17 mph (15 knots) Variable Wind Directions  
Wind Direction Quadrant(280°) Variable Visibility  
Visibility 10 statute miles  

Thunderstorm and Precipitation Identification: 
Thunderstorm Remarks: 

Current METAR Record: METAR KRAW 012112Z AUTO 28011G15KT 10SM SCT046 SCT060 17/06 A3001 RMK AO2

 

 

 

About Us
How Do I...
Contact Us
Missouri Department of Transportation
Central Office
105 W. Capitol Avenue
Jefferson City, MO 65102
1-888-ASK-MODOT (275-6636)
1-866-831-6277 (Motor Carrier Services)
Driver's License Offices
horz_bar
| | |
Missouri State Government
© 2013 Missouri Department of Transportation. All Rights Reserved.   Privacy Policy.
 
 
 
 
RSS FeedYoutubeBlogFlickrTwitter Facebook